BEIDOU-3 M4 (C22)

Last updated on Fri Oct 17 2025 00:03:25 GMT+0000 (Coordinated Universal Time)

1 43207U 18018A 25288.88669005 -.00000002 00000+0 00000+0 0 9992 2 43207 56.4373 71.2168 0004894 36.6641 323.3668 1.86231029 52192
UTC large
Height (km)
Speed (km/s)
/
Latitude / Longitude
Inclination (degrees)
Orbital Period (minutes)
Azimuth
Elevation
Range (km)
Doppler Factor

Next 0 passes for location: London (51.5072 / 0.1276)

Sorry there are no passes over London.